Regional Weather Roundup
Issued by NWS

Home | Current Version | Previous Version | Text Only | Print | Product List | Glossary Off
Versions: 1 2 3 4 5 6 7 8 9 10 11 12 13 14 15 16 17 18 19 20 21 22 23 24 25 26 27

000
ASUS45 KTFX 232010
RWRMT
MONTANA REGIONAL WEATHER ROUNDUP
NATIONAL WEATHER SERVICE GREAT FALLS MT
200 PM MDT SAT SEP 23 2017

NOTE: "FAIR" INDICATES FEW OR NO CLOUDS BELOW 12000 FEET WITH NO
SIGNIFICANT WEATHER AND/OR OBSTRUCTIONS TO VISIBILITY.

MTZ001>007-043-232100-
WEST OF THE DIVIDE

CITY           SKY/WX    TMP DP  RH WIND       PRES   REMARKS
KALISPELL      CLOUDY    52  35  52 VRB3      30.08S
MISSOULA       CLOUDY    50  35  56 CALM      30.10F
BUTTE          CLOUDY    44  30  57 CALM      30.07F
MULLAN PASS    CLOUDY    38  34  85 CALM      30.09S
ANACONDA         N/A     45  27  49 N8        30.07F
DEER LODGE       N/A     45  27  49 CALM      30.11S
EUREKA           N/A     52  36  54 CALM      30.09F
HAMILTON         N/A     50  28  43 NW5       30.09S
LIBBY            N/A     54  37  54 SW5       30.07F
PLAINS           N/A     55  34  45 CALM      30.09S
$$

MTZ008-052>055-232100-
SOUTHWEST MONTANA

CITY           SKY/WX    TMP DP  RH WIND       PRES   REMARKS
BOZEMAN        CLOUDY    46  34  62 CALM      30.09S
DILLON         CLOUDY    46  29  51 CALM      30.05F
W YELLOWSTONE    N/A     46  27  46 MISG      30.02F
ENNIS          CLOUDY    45  32  61 N9        30.10F
THREE FORKS      N/A     47  35  63 CALM      30.07S
TWIN BRIDGES     N/A     49  30  48 CALM      30.05S
$$

MTZ009-010-012-014-046-048-049-054-232100-
EAST SLOPES AND CENTRAL MONTANA

CITY           SKY/WX    TMP DP  RH WIND       PRES   REMARKS
CUT BANK       PTSUNNY   51  35  54 VRB6      30.04F
GREAT FALLS    SUNNY     50  30  46 SW8       30.06F
MALMSTROM AFB  PTSUNNY   50  33  51 SW8       30.06F
HELENA         CLOUDY    50  34  54 CALM      30.07F
BOWMANS CRNR     N/A     46  31  54 W10       30.04S
CHOTEAU          N/A     46  32  57 CALM      30.07S
FAIRFIELD        N/A     49  33  54 S7        30.05F
POWER            N/A     46  34  62 SW7       30.05F
RAYNESFORD     PTSUNNY   48  30  49 W3        30.06F
ULM              N/A     49  34  56 SW9       30.06F
$$

MTZ011-013-016-021-045-047-050-051-232100-
NORTH CENTRAL MONTANA

CITY           SKY/WX    TMP DP  RH WIND       PRES   REMARKS
HAVRE          CLOUDY    51  36  56 W3        30.08F
LEWISTOWN      CLOUDY    47  37  68 VRB5      30.08S
N BAR RANCH    CLOUDY    43  36  75 CALM      30.10S
CHINOOK          N/A     52  39  62 E8        30.08F
DENTON           N/A     48  37  65 SE6       30.05S
GEYSER         PTSUNNY   47  37  68 SE6       30.06F
JUDITH GAP     CLOUDY    41  33  73 SW8       30.08F
WINIFRED       PTSUNNY   46  38  75 NE6       30.08S
$$

MTZ017>020-022>027-061-062-232100-
NORTHEAST MONTANA

CITY           SKY/WX    TMP DP  RH WIND       PRES   REMARKS
GLASGOW        PTSUNNY   50  35  56 SE7       30.13S
JORDAN           N/A     49  38  65 SE7       30.12R
SIDNEY         CLOUDY    50  40  68 NE5       30.14F
WOLF POINT     CLOUDY    51  37  58 E3        30.15S
MALTA          CLOUDY    50  43  76 CALM      30.11F
PLENTYWOOD       N/A     52  36  54 CALM      30.14S
POPLAR           N/A     50  36  57 E5        30.14F
SCOBEY           N/A     49  35  58 CALM      30.11F
$$

MTZ028>42-056>058-232100-
SOUTHCENTRAL AND SOUTHEAST MONTANA

CITY           SKY/WX    TMP DP  RH WIND       PRES   REMARKS
BAKER          LGT RAIN  44  43  96 NE6       30.12S
BILLINGS       CLOUDY    43  39  86 NE3       30.09S
LIVINGSTON     CLOUDY    43  34  70 W6        30.08F
MILES CITY     LGT RAIN  44  39  82 E7        30.11F
BIG TIMBER     CLOUDY    43  34  70 CALM      30.10F
EKALAKA          N/A     42  38  86 N6        30.04F
HARLOWTON        N/A     44  35  72 MISG      30.08F
LAUREL           N/A     43  41  93 NE6       30.10S
$$

REGIONAL REPORTS...DAKOTAS

CITY           SKY/WX    TMP DP  RH WIND       PRES   REMARKS
WILLISTON      CLOUDY    51  39  63 NE3       30.14F
MINOT          CLOUDY    54  42  64 NW12      30.11S
DICKINSON      CLOUDY    48  42  80 N10       30.08F
BEACH          CLOUDY    45  43  93 NE6       30.15F
CROSBY         PTSUNNY   50  36  57 CALM      30.14F
TIOGA          CLOUDY    48  43  81 N7        30.15F
WATFORD CITY   LGT RAIN  46  45  93 N5        30.13F
BISMARCK       CLOUDY    58  46  64 N13       30.07S
GRAND FORKS    PTSUNNY   62  51  67 N14       30.04F
FARGO          CLOUDY    60  50  69 N12       30.04R
BUFFALO SD       N/A     46  43  89 NE14      30.00F
RAPID CITY     LGT RAIN  46  45  93 N12       30.03F FOG
$$

REGIONAL REPORTS...WYOMING/IDAHO/WASHINGTON

CITY           SKY/WX    TMP DP  RH WIND       PRES   REMARKS
GILLETTE       LGT RAIN  41  40  96 N9        30.02F FOG
SHERIDAN       CLOUDY    42  42 100 N8        30.08S FOG
BUFFALO WY     LGT RAIN  40  37  89 N7        30.06S FOG
CODY           CLOUDY    40  36  86 NE10      30.07R
IDAHO FALLS    MOSUNNY   50  35  56 CALM      30.01F
SALMON         CLOUDY    50  33  52 NW5       30.07F
BOISE          SUNNY     55  39  54 NW7       30.05F
SPOKANE        PTSUNNY   58  39  49 W9        30.09S
$$

REGIONAL REPORTS...ALBERTA

CITY           SKY/WX    TMP DP  RH WIND       PRES   REMARKS
EDMONTON       PTSUNNY   52  39  62 SE9       30.04F
CALGARY        MOSUNNY   48  32  53 SE12      30.04S
LETHBRIDGE     PTSUNNY   50  36  57 E7        30.05S
MEDICINE HAT   CLOUDY    50  36  57 VRB2      30.07F
$$

REGIONAL REPORTS...SASKATCHEWAN

CITY           SKY/WX    TMP DP  RH WIND       PRES   REMARKS
SWIFT CURRENT    N/A     50  34  53 SW8       30.09F
REGINA         PTSUNNY   50  34  53 W5        30.14F
SASKATOON      CLOUDY    50  39  66 W6        30.13F
$$




USA.gov is the U.S. government's official web portal to all federal, state and local government web resources and services.